TimeIST,TemperatureF,Dew PointF,Humidity,Sea Level PressureIn,VisibilityMPH,Wind Direction,Wind SpeedMPH,Gust SpeedMPH,PrecipitationIn,Events,Conditions,WindDirDegrees,DateUTC
12:00 AM,80.6,69.8,70,29.74,2.2,WNW,5.8,-,N/A,,Haze,290,2013-09-03 18:30:00
1:00 AM,78.8,69.8,74,29.74,2.2,Calm,Calm,-,N/A,,Haze,0,2013-09-03 19:30:00
2:00 AM,77.0,69.8,78,29.74,2.2,Variable,3.5,-,N/A,,Haze,0,2013-09-03 20:30:00
2:30 AM,76,69,73,29.67,1,West,4.6,,,,Haze,270,2013-09-03 21:00:00
3:00 AM,77.0,69.8,78,29.71,2.2,Variable,2.3,-,N/A,,Haze,0,2013-09-03 21:30:00
5:00 AM,75.2,69.8,83,29.74,2.2,Calm,Calm,-,N/A,,Haze,0,2013-09-03 23:30:00
5:30 AM,76,69,73,29.68,1,Calm,Calm,,,,Haze,,2013-09-04 00:00:00
6:00 AM,75.2,69.8,83,29.74,2.2,Variable,1.2,-,N/A,,Haze,0,2013-09-04 00:30:00
7:00 AM,75.2,69.8,83,29.77,2.2,West,4.6,-,N/A,,Haze,280,2013-09-04 01:30:00
8:00 AM,78.8,69.8,74,29.80,2.2,WNW,4.6,-,N/A,,Haze,300,2013-09-04 02:30:00
9:00 AM,82.4,71.6,70,29.80,2.5,WNW,11.5,-,N/A,,Haze,290,2013-09-04 03:30:00
11:00 AM,86.0,71.6,62,29.80,3.1,Variable,10.4,-,N/A,,Haze,0,2013-09-04 05:30:00
11:30 AM,90,71,44,29.69,2,WNW,11.5,,,,Haze,290,2013-09-04 06:00:00
12:00 PM,87.8,69.8,55,29.80,3.1,WNW,9.2,-,N/A,,Haze,300,2013-09-04 06:30:00
1:00 PM,89.6,69.8,52,29.77,3.1,NW,8.1,-,N/A,,Haze,310,2013-09-04 07:30:00
2:00 PM,91.4,68.0,46,29.74,3.1,West,11.5,-,N/A,,Haze,260,2013-09-04 08:30:00
2:30 PM,98,71,32,29.63,2,West,13.8,,,,Haze,270,2013-09-04 09:00:00
2:30 PM,91.4,68.0,46,29.71,3.1,West,12.7,-,N/A,,Haze,260,2013-09-04 09:00:00
3:00 PM,91.4,68.0,46,29.71,3.1,West,11.5,-,N/A,,Haze,260,2013-09-04 09:30:00
3:30 PM,91.4,66.2,43,29.71,3.1,WSW,13.8,-,N/A,,Haze,250,2013-09-04 10:00:00
4:00 PM,91.4,66.2,43,29.68,3.1,West,12.7,-,N/A,,Haze,260,2013-09-04 10:30:00
5:00 PM,91.4,66.2,43,29.68,3.1,West,11.5,-,N/A,,Haze,260,2013-09-04 11:30:00
5:30 PM,92,70,38,29.59,2,West,11.5,,,,Haze,270,2013-09-04 12:00:00
5:30 PM,89.6,68.0,49,29.68,3.1,West,11.5,-,N/A,,Haze,270,2013-09-04 12:00:00
6:00 PM,89.6,66.2,46,29.68,2.5,West,12.7,-,N/A,,Haze,270,2013-09-04 12:30:00
6:30 PM,87.8,68.0,52,29.68,2.5,West,10.4,-,N/A,,Haze,270,2013-09-04 13:00:00
7:00 PM,86.0,66.2,51,29.68,2.5,West,9.2,-,N/A,,Haze,270,2013-09-04 13:30:00
7:30 PM,84.2,68.0,58,29.68,2.5,West,5.8,-,N/A,,Haze,280,2013-09-04 14:00:00
8:00 PM,82.4,68.0,62,29.71,2.5,West,5.8,-,N/A,,Haze,270,2013-09-04 14:30:00
8:30 PM,82,67,53,29.64,2,West,6.9,,,,Haze,270,2013-09-04 15:00:00
9:00 PM,82.4,69.8,66,29.71,2.5,West,8.1,-,N/A,,Haze,270,2013-09-04 15:30:00
10:00 PM,80.6,68.0,65,29.74,2.5,West,8.1,-,N/A,,Haze,270,2013-09-04 16:30:00
10:30 PM,80.6,68.0,65,29.74,2.5,West,8.1,-,N/A,,Haze,280,2013-09-04 17:00:00
11:00 PM,80.6,69.8,70,29.74,2.5,West,6.9,-,N/A,,Haze,280,2013-09-04 17:30:00
11:30 PM,81,70,63,29.65,2,West,5.8,,,,Haze,270,2013-09-04 18:00:00
11:30 PM,78.8,69.8,74,29.74,2.5,West,5.8,-,N/A,,Haze,270,2013-09-04 18:00:00